Location: Newark
(39.1833°N, 3.3000°W)
Time: 18:42:21
(UTC+00:00)

Hubble Space Telescope - Visible Passes

Search period start: 23 March 2019 00:00
Search period end: 02 April 2019 00:00
Orbit: 537 x 540 km, 28.5° (Epoch: 22 March)

Date Brightness Start Highest point End Pass type
(mag) Time Alt. Az. Time Alt. Az. Time Alt. Az.
24 Mar 3.3 20:17:02 10° SSW 20:17:23 11° SSW 20:17:23 11° SSW visible
25 Mar 2.9 20:06:06 10° SSW 20:07:45 14° S 20:07:45 14° S visible
26 Mar 2.6 19:55:17 10° SSW 19:57:54 16° S 19:58:03 16° S visible
27 Mar 2.6 19:44:33 10° SW 19:47:19 17° S 19:48:18 16° SSE visible
28 Mar 2.6 19:33:52 10° SW 19:36:44 18° S 19:38:30 14° SE visible
29 Mar 2.6 19:23:15 10° SW 19:26:08 18° S 19:28:40 11° SE visible
30 Mar 2.7 19:12:40 10° SW 19:15:33 18° S 19:18:26 10° SE visible
31 Mar 2.8 19:02:08 10° SW 19:04:57 18° S 19:07:47 10° SE visible
